This is the latest recevied weather packets stored in our database for station/object EA3FHP. If no packets are shown the sender has not sent any weather packets the latest 10 day(s).
| Time | Temp. | Humidity | Pressure | Rain* | Wind** | Luminosity | Snow |
|---|---|---|---|---|---|---|---|
| 1777231803 | 15.56° C | 94% | 1020.7 hPa | 0 mm | - | - | - |
| 1777231203 | 15.56° C | 93% | 1020.5 hPa | 0 mm | - | - | - |
| 1777230603 | 15.56° C | 93% | 1020.5 hPa | 0 mm | - | - | - |
| 1777230004 | 15.56° C | 93% | 1020.6 hPa | 0 mm | - | - | - |
| 1777229403 | 15.56° C | 93% | 1020.4 hPa | 0 mm | - | - | - |
| 1777228803 | 15.56° C | 92% | 1020.4 hPa | 0 mm | - | - | - |
| 1777228203 | 15.56° C | 91% | 1020.5 hPa | 0 mm | - | - | - |
| 1777227603 | 15.56° C | 91% | 1020.2 hPa | 0 mm | - | - | - |
| 1777227003 | 15.56° C | 91% | 1020.2 hPa | 0 mm | - | - | - |
| 1777226403 | 15.56° C | 91% | 1020.5 hPa | 0 mm | - | - | - |
| 1777225803 | 15.56° C | 90% | 1020.2 hPa | 0.25 mm | - | - | - |
| 1777225204 | 15.56° C | 89% | 1020.3 hPa | 0.51 mm | - | - | - |
| 1777224603 | 15.56° C | 89% | 1020.2 hPa | 0.51 mm | - | - | - |
| 1777224003 | 15.56° C | 88% | 1020.4 hPa | 0.51 mm | - | - | - |
| 1777223403 | 15.56° C | 88% | 1020.3 hPa | 1.02 mm | - | - | - |
| 1777222803 | 16.11° C | 86% | 1020.5 hPa | 1.02 mm | - | - | - |
| 1777222203 | 16.11° C | 85% | 1020.3 hPa | 0.51 mm | - | - | - |
| 1777221603 | 16.11° C | 84% | 1020.5 hPa | 0.25 mm | - | - | - |
| 1777221003 | 16.67° C | 84% | 1020.3 hPa | 0.25 mm | - | - | - |
| 1777220403 | 16.67° C | 84% | 1020.5 hPa | 0.25 mm | - | - | - |
| 1777219803 | 16.67° C | 83% | 1020.3 hPa | 0.25 mm | - | - | - |
| 1777219205 | 16.67° C | 82% | 1020.3 hPa | 0.25 mm | - | - | - |
| 1777218604 | 16.67° C | 82% | 1020.4 hPa | 0.25 mm | - | - | - |
| 1777218003 | 17.22° C | 82% | 1020.1 hPa | 0.25 mm | - | - | - |
| 1777217403 | 17.22° C | 82% | 1020.1 hPa | 0.25 mm | - | - | - |
* Rain latest hour (hover to see other rain measurements)
** Current wind speed in m/s (hover to see current wind gust speed)